This demonstration page uses our WeatherBlox Daily Observations layout. Learn more.

Left ArrowRight Arrow

40.92945, -100.16068

Hourly Observations for February 15, 2021

Temp ( °F °C ) Dew Point ( °F °C ) Humidity (%) Winds ( mph kmh ) Pressure ( in mb ) Visibility ( mi km ) Precip ( " mm )
12:15 am 00:15 Mostly Cloudy -12 -24.7 -18 -27.9 75 75 N N/A 30.82 1044 10 16.0934 N/A
12:35 am 00:35 Cloudy -14 -25.6 -19 -28.3 78 78 N N/A 30.83 1044 10 16.0934 N/A
12:55 am 00:55 Mostly Cloudy -15 -25.9 -20 -28.7 77 77 N N/A 30.83 1044 10 16.0934 N/A
1:15 am 01:15 Mostly Cloudy -17 -27.2 -22 -30 77 77 N N/A 30.84 1045 10 16.0934 N/A
1:35 am 01:35 Partly Cloudy -15 -26.1 -19 -28.2 83 83 N N/A 30.82 1044 10 16.0934 N/A
1:55 am 01:55 Clear -17 -27.1 -21 -29.7 79 79 N N/A 30.82 1044 10 16.0934 N/A
2:15 am 02:15 Clear -19 -28.2 -23 -30.7 79 79 N N/A 30.84 1044 10 16.0934 N/A
2:35 am 02:35 Clear -18 -27.8 -23 -30.4 78 78 N N/A 30.82 1044 10 16.0934 N/A
2:55 am 02:55 Clear -21 -29.5 -26 -32.4 76 76 N N/A 30.84 1044 10 16.0934 N/A
3:15 am 03:15 Clear -21 -29.3 -26 -32.2 76 76 N N/A 30.83 1044 10 16.0934 N/A
3:35 am 03:35 Clear -24 -31.3 -30 -34.3 75 75 N N/A 30.85 1045 10 16.0934 N/A
3:55 am 03:55 Clear -24 -31.1 -29 -33.8 77 77 N N/A 30.82 1044 10 16.0934 N/A
4:15 am 04:15 Clear -25 -31.9 -31 -34.8 75 75 NW 3 6 30.83 1044 10 16.0934 N/A
4:35 am 04:35 Clear -27 -32.9 -33 -36 74 74 WNW 3 6 30.84 1044 10 16.0934 N/A
4:55 am 04:55 Clear -29 -34.1 -36 -37.5 71 71 NW 6 9 30.84 1044 10 16.0934 N/A
5:15 am 05:15 Clear -30 -34.6 -36 -38 71 71 NNW 3 6 30.85 1045 10 16.0934 N/A
5:35 am 05:35 Clear -30 -34.3 -36 -37.8 70 70 N N/A 30.84 1045 10 16.0934 N/A
5:55 am 05:55 Clear -30 -34.3 -36 -37.8 70 70 W 6 9 30.84 1045 10 16.0934 N/A
6:15 am 06:15 Clear -29 -33.7 -35 -37.2 70 70 WNW 6 9 30.83 1044 10 16.0934 N/A
6:35 am 06:35 Clear -29 -34 -36 -37.5 70 70 W 5 7 30.83 1044 10 16.0934 N/A
6:55 am 06:55 Clear -29 -34 -36 -37.5 70 70 WNW 8 13 30.81 1043 10 16.0934 N/A
7:15 am 07:15 Clear -30 -34.2 -36 -37.7 70 70 WNW 6 9 30.81 1043 10 16.0934 N/A
7:35 am 07:35 Sunny -30 -34.7 -37 -38.3 69 69 WNW 5 7 30.82 1044 10 16.0934 N/A
7:55 am 07:55 Sunny -29 -34.1 -36 -37.5 71 71 WNW 7 11 30.81 1043 10 16.0934 N/A
8:15 am 08:15 Sunny -32 -35.6 -39 -39.4 68 68 WNW 5 7 30.83 1044 10 16.0934 N/A
8:35 am 08:35 Sunny -30 -34.3 -36 -37.8 70 70 N N/A 30.82 1044 10 16.0934 N/A
8:55 am 08:55 Sunny -29 -34.1 -36 -37.5 71 71 N N/A 30.83 1044 10 16.0934 N/A
9:15 am 09:15 Sunny -27 -32.8 -33 -36.3 71 71 N N/A 30.81 1044 10 16.0934 N/A
9:35 am 09:35 Sunny -26 -32 -31 -35.2 73 73 N N/A 30.8 1043 10 16.0934 N/A
9:55 am 09:55 Sunny -23 -30.8 -29 -34.1 73 73 N N/A 30.79 1043 10 16.0934 N/A
10:15 am 10:15 Sunny -22 -29.8 -28 -33.1 73 73 N N/A 30.78 1042 10 16.0934 N/A
10:35 am 10:35 Sunny -19 -28.3 -25 -31.7 73 73 N N/A 30.75 1041 10 16.0934 N/A
10:55 am 10:55 Sunny -17 -27.2 -23 -30.5 74 74 N N/A 30.72 1040 10 16.0934 N/A
11:15 am 11:15 Sunny -14 -25.5 -20 -28.7 75 75 N N/A 30.7 1040 10 16.0934 N/A
11:35 am 11:35 Sunny -11 -24.1 -18 -27.7 72 72 ESE 5 7 30.67 1039 10 16.0934 N/A
11:55 am 11:55 Sunny -10 -23.1 -16 -26.6 73 73 N N/A 30.65 1038 10 16.0934 N/A
12:15 pm 12:15 Sunny -9 -22.9 -16 -26.6 72 72 N N/A 30.64 1038 10 16.0934 N/A
12:35 pm 12:35 Sunny -9 -22.5 -16 -26.5 70 70 N N/A 30.62 1037 10 16.0934 N/A
12:55 pm 12:55 Sunny -9 -22.7 -18 -27.6 64 64 N N/A 30.63 1037 10 16.0934 N/A
1:15 pm 13:15 Sunny -9 -22.5 -19 -28.2 60 60 N N/A 30.6 1036 10 16.0934 N/A
1:35 pm 13:35 Sunny -9 -22.5 -18 -28 61 61 N N/A 30.58 1036 10 16.0934 N/A
1:50 pm 13:50 Sunny -8 -22.3 -18 -27.8 61 61 N N/A 30.57 1035 10 16.0934 N/A
2:15 pm 14:15 Sunny -7 -21.6 -17 -27.3 60 60 N N/A 30.53 1034 10 16.0934 N/A
2:35 pm 14:35 Sunny -7 -21.5 -16 -26.8 62 62 ENE 3 6 30.53 1034 10 16.0934 N/A
2:55 pm 14:55 Sunny -6 -21.3 -16 -26.4 64 64 ENE 3 6 30.52 1034 10 16.0934 N/A
3:10 pm 15:10 Sunny -6 -21.1 -15 -26.3 63 63 ENE 8 13 30.51 1033 10 16.0934 N/A
3:35 pm 15:35 Sunny -5 -20.7 -15 -26.2 62 62 SE 7 11 30.48 1032 10 16.0934 N/A
3:55 pm 15:55 Sunny -6 -21 -16 -26.5 61 61 ESE 7 11 30.48 1032 10 16.0934 N/A
4:10 pm 16:10 Sunny -6 -21.1 -16 -26.6 61 61 SE 6 9 30.48 1032 10 16.0934 N/A
4:35 pm 16:35 Sunny -6 -21.3 -16 -26.6 62 62 SE 6 9 30.47 1032 10 16.0934 N/A
4:55 pm 16:55 Sunny -7 -21.6 -16 -26.7 64 64 ESE 6 9 30.46 1032 10 16.0934 N/A
5:15 pm 17:15 Sunny -7 -21.9 -17 -27 63 63 SE 7 11 30.46 1031 10 16.0934 N/A
5:35 pm 17:35 Sunny -8 -22.2 -17 -27 65 65 SE 5 7 30.45 1031 10 16.0934 N/A
5:55 pm 17:55 Sunny -9 -22.8 -18 -27.5 66 66 SE 6 9 30.46 1031 10 16.0934 N/A
6:15 pm 18:15 Clear -10 -23.3 -18 -27.9 66 66 SSE 5 7 30.46 1032 10 16.0934 N/A
6:35 pm 18:35 Clear -10 -23.6 -18 -27.9 68 68 SE 6 9 30.46 1031 10 16.0934 N/A
6:55 pm 18:55 Clear -11 -24 -18 -28 70 70 SE 7 11 30.45 1031 10 16.0934 N/A
7:15 pm 19:15 Clear -12 -24.5 -19 -28.3 71 71 SE 6 9 30.46 1031 10 16.0934 N/A
7:35 pm 19:35 Clear -13 -24.8 -19 -28.5 71 71 SE 7 11 30.46 1032 10 16.0934 N/A
7:55 pm 19:55 Clear -14 -25.4 -19 -28.6 75 75 SE 5 7 30.47 1032 10 16.0934 N/A
8:15 pm 20:15 Clear -15 -26 -20 -29.1 75 75 SE 7 11 30.46 1032 10 16.0934 N/A
8:35 pm 20:35 Clear -14 -25.8 -21 -29.3 72 72 SSE 7 11 30.45 1031 10 16.0934 N/A
8:55 pm 20:55 Clear -16 -26.8 -23 -30.4 72 72 SSE 7 11 30.46 1032 10 16.0934 N/A
9:15 pm 21:15 Clear -16 -26.7 -22 -30.2 72 72 SE 5 7 30.45 1031 10 16.0934 N/A
9:35 pm 21:35 Clear -16 -26.6 -22 -30.1 72 72 SE 5 7 30.45 1031 10 16.0934 N/A
9:55 pm 21:55 Clear -17 -27.3 -23 -30.8 72 72 S 5 7 30.46 1032 10 16.0934 N/A
10:15 pm 22:15 Clear -18 -27.6 -23 -30.6 76 76 SSE 3 6 30.45 1031 10 16.0934 N/A
10:35 pm 22:35 Clear -17 -27.4 -24 -30.9 72 72 SE 6 9 30.44 1031 10 16.0934 N/A
10:55 pm 22:55 Clear -18 -27.5 -24 -30.9 73 73 SSE 3 6 30.44 1031 10 16.0934 N/A
11:15 pm 23:15 Clear -22 -29.8 -27 -33 74 74 SE 3 6 30.47 1032 10 16.0934 N/A
11:35 pm 23:35 Clear -28 -33.1 -34 -36.6 71 71 N N/A 30.5 1033 10 16.0934 N/A
11:55 pm 23:55 Clear -26 -32 -31 -35 75 75 N N/A 30.48 1032 10 16.0934 N/A

Powered by AerisWeather